Please be sure to check the latest weather conditions by clicking the link and viewing our local weather information!

Check Weather

Welcome to Lakeway Airpark (3R9)

FromTheAir

We’re a community airpark nestled within the town of Lakeway, Texas (17 miles northwest of downtown Austin).

Lakeway Airpark, Inc. was formed by Lakeway residents and interested parties to own and manage Lakeway Airpark (3R9).

The Airpark is a privately owned not for profit public use airport for residents and guests of Lakeway. No public funds are used and the airport is supported by fees and fuel sales at the airport.

Lakeway Airpark is an unmanned facility open for use from Sunrise to Sunset seven days a week. Takeoffs and landings are not permitted at night, between Sunset and Sunrise, by City Ordinance.

Quick Weather Info

Available data for KAUS from the past 2 hours
AUSTIN, TX
Metar
KAUS 182353Z 16008KT 10SM FEW080 FEW300 18/M02 A3021 RMK AO2 SLP231 T01831017 10211 20183 55002

23:53 UTC

Wind: 160° 8kt

Visibility: 10 SM

Sky: FEW 8000 ft

Temp: 18 deg C / 64.4 deg F

Dewpoint: -2 deg C / 28.4 deg F

Pressure: 30.21 inHg

TAF
KAUS 182320Z 1900/2006 14008KT P6SM SCT250 FM192000 15009KT P6SM BKN150